GFSNW_250_rhum_003.txt.gz
RH
15 24 19 30 61 60 66 100 91 100 100 100 99 91 51 68 70 67 47 37 23 14 9 13 23 22 21 22 25 29 25 31 24 23 30 34 31 34 31 42 38 33 30 27
16 22 23 56 63 58 83 93 97 100 100 100 99 90 58 70 62 62 52 50 40 27 23 22 25 28 27 23 19 17 19 20 21 26 31 30 20 21 25 38 39 35 29 28
18 19 47 58 63 57 87 91 100 100 100 97 98 89 58 76 63 60 64 59 46 42 37 34 29 27 26 18 17 22 25 18 21 24 37 38 32 35 36 38 40 38 34 28
18 26 54 52 58 67 85 91 100 99 100 96 100 90 71 71 70 62 65 60 60 42 46 40 39 32 30 34 35 35 28 22 23 22 34 35 29 29 28 28 35 36 37 36
18 40 42 50 52 72 91 96 100 100 100 99 100 86 72 63 90 60 64 60 50 50 41 33 35 39 36 35 37 43 30 25 24 24 31 38 27 27 30 34 38 38 37 38
24 43 47 47 53 78 84 100 100 100 100 97 100 93 77 58 93 80 56 51 48 42 42 36 29 21 21 23 25 27 27 24 22 23 26 34 34 29 29 31 33 35 36 35
30 45 43 45 60 80 81 100 100 100 100 96 100 98 66 64 82 87 61 43 42 33 35 35 28 26 24 22 21 21 21 16 18 21 22 27 38 36 34 27 27 28 30 28
33 46 41 42 63 81 92 100 100 100 100 100 100 100 70 76 65 87 78 46 38 37 30 29 28 26 21 19 19 20 21 21 18 17 19 21 23 29 34 37 37 39 43 41
32 44 44 46 75 77 100 100 100 98 100 100 96 100 96 84 69 89 92 54 36 39 32 30 27 23 22 22 20 18 18 20 20 19 19 19 20 21 22 25 30 35 39 40
34 41 45 58 84 84 96 100 100 100 100 100 100 98 100 82 97 68 81 73 54 45 42 38 32 27 22 20 19 18 18 20 20 20 20 19 19 20 21 21 22 23 26 30
31 40 46 66 84 78 91 99 100 100 100 99 100 100 100 83 99 94 74 80 74 62 58 46 43 43 38 33 33 31 23 20 19 20 21 20 20 20 21 21 21 21 22 22
31 44 49 68 88 81 93 100 100 100 100 100 100 100 100 96 86 91 99 89 94 84 85 76 71 54 54 50 47 47 50 44 31 26 25 23 23 23 24 24 26 27 28 30
38 45 50 64 79 83 88 100 100 100 97 100 100 100 100 100 95 80 97 89 100 97 90 88 79 79 81 82 68 56 50 44 45 41 34 30 25 26 26 30 34 37 34 35
42 49 56 62 79 85 86 100 98 100 100 100 100 100 100 100 100 82 83 84 72 84 87 98 100 92 92 86 81 72 68 71 67 65 55 50 48 50 47 46 48 52 58 57
44 58 58 64 78 79 85 100 100 100 100 100 100 100 100 100 98 95 88 82 100 83 94 84 94 96 88 92 95 88 100 91 82 73 80 76 64 68 66 64 64 59 63 60
52 61 61 60 74 75 79 99 99 100 100 100 100 100 99 91 84 85 96 88 77 94 87 85 81 84 92 94 98 96 98 90 87 79 65 62 67 72 82 94 100 100 100 100
49 62 62 59 66 78 81 96 100 100 100 100 100 100 98 71 74 70 67 77 85 82 86 88 90 81 86 82 79 82 80 78 76 78 81 84 92 92 92 81 79 74 76 76
45 70 72 55 60 79 85 90 91 93 100 100 99 99 96 74 77 79 70 62 65 64 76 76 75 65 73 84 79 70 69 73 73 62 58 65 64 58 60 69 74 80 78 69
45 63 74 64 61 75 89 85 84 89 98 100 100 100 100 78 76 76 78 75 73 67 71 73 73 71 89 92 72 65 63 64 65 72 68 66 62 61 60 56 49 51 52 50
49 56 61 61 63 73 84 79 84 88 93 100 100 98 96 87 71 71 69 64 64 61 64 67 72 92 88 80 66 61 65 62 64 74 74 74 70 60 56 55 53 52 54 63
44 40 48 63 66 62 73 76 80 88 100 100 100 100 93 94 73 65 63 66 72 75 75 79 86 95 77 71 67 61 59 57 60 64 71 76 76 77 78 80 83 81 81 80
36 47 57 75 57 57 55 68 72 88 100 100 100 100 99 86 83 87 92 89 95 99 95 75 100 99 64 76 82 72 64 64 69 73 76 80 80 78 74 71 68 61 54 55
26 31 55 64 48 49 46 66 74 82 100 100 100 100 100 98 82 83 94 81 92 92 92 98 100 78 72 81 82 71 61 57 57 56 54 54 52 52 52 50 50 50 51 54
14 21 25 37 38 49 61 73 87 94 100 100 100 100 97 79 89 84 69 80 94 90 100 100 100 86 63 63 65 64 57 52 53 59 64 69 70 68 68 69 71 79 88 96
13 20 33 32 51 67 77 79 84 78 82 77 82 99 100 87 75 95 99 98 98 100 100 100 78 71 75 72 68 72 81 84 82 80 83 83 80 81 87 92 96 98 99 98
13 18 35 47 50 59 78 84 86 87 79 67 62 69 93 100 89 92 100 100 100 100 95 95 95 95 94 96 99 100 97 94 92 88 88 96 100 100 100 100 98 96 93 91
12 21 33 39 43 61 83 89 90 94 93 78 60 57 62 73 90 100 100 100 98 92 96 100 100 100 100 99 98 100 100 100 100 100 100 100 100 100 98 94 87 89 90 83

GFSNW_250_rhum_006.txt.gz
RH
7 8 10 12 14 18 26 30 46 66 69 98 100 100 96 96 72 91 91 63 37 22 9 8 8 6 16 29 36 39 47 52 67 93 89 76 54 34 30 31 33 38 44 47
7 8 10 12 16 23 31 29 64 62 85 100 100 100 93 74 78 97 94 63 49 41 39 21 14 24 47 43 46 91 81 60 72 100 85 75 52 49 26 32 43 41 48 45
7 9 11 13 21 30 26 47 62 81 100 100 100 100 88 71 81 98 94 72 63 63 62 31 30 45 72 52 66 88 100 82 89 99 74 62 48 31 29 24 37 37 43 49
7 9 12 18 25 23 32 53 75 96 100 100 100 97 76 71 91 95 88 76 75 70 78 39 35 40 66 63 57 72 98 80 63 61 43 28 29 21 20 37 43 42 40 46
8 12 16 19 17 23 49 65 77 99 100 100 100 94 67 78 100 95 69 74 83 73 57 60 33 38 52 47 53 61 60 48 40 44 31 32 26 20 29 32 29 32 36 37
10 10 13 21 20 37 63 70 93 95 100 100 100 98 74 77 98 91 70 74 78 72 60 58 50 42 32 31 29 29 26 25 19 22 25 27 26 30 30 37 41 48 46 38
10 11 16 18 30 61 68 76 88 97 100 100 100 100 91 71 100 94 60 60 68 57 53 50 49 45 42 39 38 34 26 25 22 23 24 24 30 28 34 35 37 46 49 45
10 12 12 19 52 61 58 80 86 99 100 100 100 100 93 75 80 100 74 54 53 46 44 40 35 36 39 41 43 38 38 37 33 27 27 27 30 34 34 33 35 41 42 38
10 15 18 27 57 55 65 73 84 99 100 100 99 100 97 76 80 100 90 56 47 44 36 36 36 37 41 39 36 40 43 37 35 34 30 27 29 35 43 44 34 36 36 34
12 15 18 41 60 53 64 72 85 100 100 100 97 100 100 88 82 95 99 76 61 49 38 31 29 30 29 25 25 27 28 30 30 28 28 30 28 30 36 46 48 43 38 34
14 14 18 52 54 54 63 68 91 100 100 99 100 100 100 85 90 96 93 89 73 57 43 39 33 28 26 25 24 23 22 23 24 23 22 23 24 27 26 29 34 39 42 41
13 18 22 52 59 55 65 74 92 100 100 99 100 100 100 99 96 94 77 93 91 84 64 43 43 36 28 23 23 23 25 24 24 23 24 23 22 21 23 25 25 25 26 26
13 18 26 44 53 62 64 69 87 100 100 100 100 100 100 97 100 100 98 85 100 95 93 77 57 47 48 46 40 33 25 23 22 21 20 21 22 24 24 24 24 24 23 24
12 17 28 46 51 64 66 79 84 98 100 100 98 98 93 100 100 92 100 82 98 100 98 100 90 65 58 60 64 65 59 53 40 30 22 22 21 22 22 23 23 24 23 22
15 18 30 54 53 67 68 83 92 99 100 100 100 99 95 100 100 99 93 90 82 94 100 100 100 99 86 80 82 74 68 66 67 59 57 49 42 41 42 40 37 35 39 44
14 20 35 56 56 69 72 86 96 100 100 100 100 100 100 100 100 100 87 82 100 80 71 90 100 98 99 93 87 81 76 69 66 63 64 65 65 66 65 64 65 65 65 62
15 17 33 54 59 73 80 90 100 100 97 95 100 100 100 100 100 100 86 92 82 98 100 96 83 84 89 96 96 92 87 86 80 77 66 62 66 66 61 56 59 61 63 66
15 16 26 53 58 72 83 88 91 90 98 94 100 100 100 100 100 100 83 81 76 71 86 98 99 100 99 91 76 77 78 77 81 86 86 84 82 76 73 73 71 70 68 68
16 18 27 49 55 69 90 90 86 81 89 91 100 100 100 100 100 100 96 100 99 77 86 86 76 94 100 86 82 80 74 81 78 76 68 64 64 64 62 59 54 51 57 56
17 18 28 42 62 80 84 88 78 79 77 95 100 100 100 100 100 100 81 71 95 99 75 60 98 99 90 86 73 73 82 89 86 87 88 86 82 93 85 72 74 78 73 74
16 14 24 55 73 70 75 85 70 77 77 100 100 100 100 100 100 97 83 64 71 85 82 68 67 86 76 81 86 85 88 79 81 89 95 85 79 73 70 66 68 70 71 71
13 14 33 54 58 58 64 75 68 74 83 100 100 100 100 100 100 99 95 74 63 72 85 77 85 96 77 75 82 74 68 78 87 85 72 73 70 68 69 74 77 78 81 82
13 17 26 42 44 39 55 76 82 80 97 100 100 100 100 100 100 100 95 83 72 84 84 99 100 100 81 66 68 79 78 73 81 69 69 69 69 73 74 73 70 64 57 50
13 14 17 21 36 45 65 90 98 96 100 100 100 100 86 78 91 89 89 100 98 89 95 100 100 90 82 67 63 85 99 95 86 83 83 71 60 55 52 52 54 56 65 78
11 11 12 22 36 54 72 93 97 100 100 100 100 96 83 62 71 91 93 100 100 100 100 100 88 80 75 72 84 94 95 82 69 62 60 63 65 66 68 67 69 78 83 78
9 9 14 29 36 64 80 96 100 100 100 100 100 87 80 68 59 84 100 100 100 100 100 100 90 79 80 78 75 73 72 75 78 80 81 79 77 78 79 84 84 80 80 86
8 10 16 25 43 63 88 95 100 100 100 100 99 84 81 74 68 77 97 100 100 100 100 99 94 87 80 79 77 77 76 79 86 90 92 91 89 90 89 87 90 93 95 94

GFSNW_250_rhum_012.txt.gz
RH
2 3 3 4 5 6 8 12 13 10 21 36 53 83 90 65 76 88 99 77 93 79 54 52 35 20 13 8 6 6 8 8 8 7 9 11 15 11 39 67 99 94 98 100
2 3 3 5 6 8 11 16 18 12 20 36 60 64 62 75 97 95 90 95 99 64 60 86 47 37 20 15 27 17 39 69 58 43 59 45 37 42 62 100 100 100 100 91
3 4 4 5 6 7 7 11 13 17 24 34 42 50 73 98 90 97 98 100 79 57 53 77 57 49 74 100 100 100 98 100 100 100 100 100 98 97 100 100 100 100 100 100
4 4 5 6 6 6 7 10 21 28 50 53 45 76 93 79 90 100 100 97 86 96 97 81 45 76 100 100 100 100 100 100 100 100 100 100 100 100 100 100 100 100 100 96
4 4 5 6 7 8 10 16 20 37 28 33 78 89 76 89 100 100 100 95 96 100 100 87 78 82 100 100 100 100 100 100 100 100 100 100 100 100 100 100 100 98 100 93
4 5 6 8 8 10 19 21 24 25 33 68 80 71 99 100 100 100 100 94 69 98 100 98 82 67 97 100 100 100 100 100 100 100 100 100 100 100 100 100 100 88 97 72
5 6 8 8 10 12 17 22 25 38 58 77 62 94 100 100 100 95 100 93 76 100 100 100 87 72 77 100 100 100 100 100 100 100 100 100 100 100 100 100 100 66 68 41
5 7 8 10 12 12 16 23 38 61 79 63 83 96 100 100 100 100 100 93 87 100 100 100 100 84 76 79 96 100 92 100 100 100 100 100 100 100 100 100 87 56 46 41
6 7 9 11 12 13 16 28 56 77 64 78 82 100 100 100 100 100 100 100 86 98 100 100 100 100 88 77 82 100 100 99 100 82 84 90 89 75 56 49 55 50 48 48
6 8 10 11 13 15 22 34 71 70 83 78 93 100 100 100 100 100 100 100 100 100 85 96 100 100 100 92 80 76 83 100 100 84 63 49 48 46 42 35 32 39 41 42
6 9 10 11 14 17 25 53 61 66 84 76 100 100 100 100 100 100 100 100 100 94 100 95 86 95 93 85 86 80 71 74 96 69 65 64 48 44 45 42 42 42 45 42
6 8 10 10 16 21 34 53 53 74 74 81 100 100 100 100 98 96 100 98 100 97 82 74 83 67 59 72 93 84 90 67 66 70 79 74 68 57 54 51 44 33 38 46
6 7 8 12 21 27 37 48 61 72 74 92 98 100 100 100 99 88 100 97 98 97 79 70 71 70 62 56 52 60 55 53 49 48 50 54 53 54 49 48 37 31 31 34
6 7 7 14 24 34 42 52 59 78 86 94 97 100 92 98 100 89 100 94 94 95 98 60 67 48 43 41 48 52 54 43 39 40 44 47 45 45 41 36 37 36 32 32
6 6 7 14 24 38 43 52 61 90 95 92 95 96 83 100 100 99 98 94 93 95 100 81 73 62 46 36 33 33 34 34 30 36 34 34 34 34 35 33 29 28 28 28
6 5 5 15 24 35 40 56 60 83 95 100 92 89 80 89 96 100 73 100 85 91 100 100 100 90 90 84 51 46 30 29 32 34 32 30 27 27 27 27 28 27 26 26
5 5 4 16 24 35 44 68 69 85 87 97 92 80 77 82 97 100 82 84 98 82 92 100 100 100 98 99 100 100 86 84 60 49 46 42 36 33 29 27 25 25 26 26
5 4 4 17 24 49 58 71 65 94 82 90 89 79 79 91 92 100 90 95 100 99 90 100 100 99 93 97 90 96 99 97 88 80 78 79 82 80 79 80 84 86 80 78
4 4 7 18 24 50 61 65 70 77 79 85 81 85 81 100 99 89 91 100 97 100 100 97 100 100 92 85 95 100 100 100 99 96 91 85 81 79 79 79 79 76 74 73
4 4 6 18 26 54 58 62 66 74 76 86 86 84 86 93 100 89 84 92 97 79 92 93 97 100 100 95 95 99 100 97 90 88 87 81 77 74 67 65 64 62 59 52
5 4 5 15 26 39 58 57 65 83 100 100 95 92 90 91 98 97 99 96 100 98 91 99 99 100 96 90 93 100 100 99 86 95 100 97 90 87 74 80 78 74 78 69
6 4 5 12 20 24 35 46 64 89 100 100 100 100 100 94 91 88 92 100 99 100 100 100 98 90 99 100 100 98 90 92 98 99 99 100 86 84 80 83 84 83 69 78
6 6 4 7 12 15 15 50 70 97 100 100 100 100 100 96 91 85 78 85 100 100 100 100 100 95 97 100 96 87 92 97 95 87 81 88 79 80 75 74 82 84 80 90
5 6 5 5 10 14 22 74 92 100 100 100 100 98 99 94 86 84 84 77 82 100 100 100 100 100 93 93 91 71 63 68 70 78 87 86 92 92 86 78 74 80 85 89
5 7 6 5 10 17 31 70 100 100 100 100 99 82 77 82 92 94 87 87 86 98 89 83 90 86 87 97 96 88 83 64 51 52 62 72 72 75 71 66 68 75 93 95
6 7 8 7 10 20 36 62 93 100 100 100 90 91 82 65 85 96 92 98 100 97 89 81 82 95 100 100 100 100 85 73 73 63 55 52 52 54 58 59 71 89 88 88
8 7 9 9 9 17 36 62 73 95 100 100 97 92 89 82 70 86 100 100 99 100 100 98 87 96 100 100 100 100 100 99 90 79 68 64 64 64 65 79 91 95 95 87

GFSNW_250_rhum_018.txt.gz
RH
3 2 2 3 3 3 3 4 5 10 12 12 18 64 70 91 91 91 100 100 100 100 100 100 100 88 71 54 51 55 57 70 48 46 27 18 10 5 3 3 2 2 3 6
3 2 3 3 3 4 4 4 6 7 8 9 17 61 78 76 94 92 100 100 100 100 100 100 80 69 59 76 100 100 100 96 96 81 64 33 21 11 5 3 3 2 2 4
3 2 3 4 3 4 4 5 6 7 8 10 14 42 66 65 96 100 100 100 100 100 100 81 67 65 90 100 100 100 100 99 100 91 99 71 40 19 12 10 7 6 6 6
3 2 3 4 4 4 4 4 6 9 12 14 20 33 54 58 92 100 100 100 100 100 82 66 68 79 100 100 100 100 98 100 100 100 100 100 100 68 75 40 17 12 10 10
3 3 3 4 4 6 5 6 7 11 14 15 22 34 50 67 96 100 100 100 100 85 76 68 72 100 99 84 98 100 100 100 100 100 100 100 100 100 98 78 49 42 28 30
3 3 4 5 6 7 7 8 9 11 14 19 22 20 26 46 74 100 100 100 80 76 73 83 88 96 88 89 89 100 100 100 100 100 100 100 100 100 100 85 92 96 94 100
3 3 4 6 7 8 9 10 12 13 18 19 18 23 26 33 48 90 100 80 74 79 96 87 99 100 74 85 99 100 100 100 100 100 100 100 100 100 100 100 100 100 100 93
3 4 4 6 8 8 10 11 11 14 16 18 28 35 32 41 73 100 72 73 71 77 91 95 100 100 78 85 85 100 100 100 100 100 100 94 100 100 100 100 99 100 100 100
3 5 5 6 9 9 10 14 15 13 20 21 29 35 48 69 80 62 75 77 84 78 81 98 100 100 82 72 99 100 100 100 93 100 100 100 100 100 86 100 100 91 100 100
4 4 5 7 9 9 12 15 22 26 25 29 36 43 60 67 69 74 70 72 81 72 87 100 100 100 87 76 90 93 86 95 100 100 100 100 100 100 95 100 97 84 95 100
4 5 5 6 9 10 13 15 24 33 25 33 39 64 78 71 75 73 75 86 81 87 97 100 100 98 100 100 91 79 89 98 100 100 100 100 100 100 100 95 100 100 93 97
4 5 6 6 9 12 14 19 27 38 31 43 58 75 74 66 80 81 72 89 92 91 87 90 100 100 100 96 100 100 92 80 88 100 95 100 100 100 88 86 74 92 89 90
4 5 6 6 9 14 17 21 40 40 46 52 60 75 65 71 92 84 74 99 100 90 88 86 77 82 95 92 87 98 100 96 83 87 93 99 100 100 90 94 98 98 96 93
5 5 6 6 8 11 19 26 43 46 52 64 71 64 66 80 96 98 100 100 98 94 98 99 100 98 99 94 92 93 95 88 95 91 99 88 98 100 100 100 100 100 92 87
5 6 6 6 8 10 19 33 39 57 59 80 72 64 68 79 90 87 86 86 93 99 100 99 91 91 86 91 98 93 93 99 100 99 100 97 96 85 83 90 91 82 68 53
5 6 7 7 8 8 19 39 56 73 76 87 78 62 72 84 82 81 77 98 100 100 100 100 93 76 72 58 60 71 84 97 100 86 88 87 77 75 70 70 68 63 59 58
5 5 6 6 9 10 22 46 61 73 90 90 74 72 89 87 77 76 80 97 100 100 100 100 95 58 53 45 38 44 48 53 59 56 53 58 56 49 49 49 50 55 52 49
5 5 6 6 9 10 19 32 61 74 90 85 78 68 80 85 77 74 80 95 100 100 100 100 100 74 60 62 53 51 47 43 41 48 68 80 71 66 66 56 55 57 58 66
5 4 5 5 7 8 11 34 60 82 89 88 86 76 74 69 68 72 84 98 96 99 100 100 99 93 81 75 58 66 58 69 84 92 91 96 100 98 99 97 93 95 99 98
5 5 3 3 6 8 10 28 62 82 96 92 87 93 83 70 69 66 83 100 96 89 100 100 99 99 100 85 88 95 88 84 92 98 99 100 100 100 100 100 96 92 86 82
5 5 3 4 6 8 8 16 50 78 99 98 90 96 92 82 82 73 72 95 93 81 94 92 100 100 100 100 100 100 100 100 100 100 100 100 100 100 99 98 96 93 89 90
6 6 4 4 5 7 7 14 47 86 100 100 100 94 92 76 76 86 76 75 96 88 84 79 78 97 100 100 100 100 100 100 100 100 100 100 100 100 100 100 100 100 100 100
9 7 6 5 6 9 7 17 54 92 100 100 97 92 94 85 81 84 96 94 92 100 76 75 80 69 80 100 100 100 100 100 100 100 100 100 100 100 100 100 100 100 100 97
12 8 8 6 7 13 18 27 50 77 99 98 97 100 94 84 82 86 90 99 100 100 92 80 76 88 87 86 87 91 91 100 100 100 98 96 96 89 85 83 90 97 99 99
12 11 9 8 8 15 23 26 37 71 77 86 88 99 95 77 73 86 99 98 100 98 97 96 77 79 87 89 89 93 100 100 100 96 89 89 93 93 91 86 84 86 76 68
20 14 11 10 8 10 21 31 35 42 59 68 74 89 97 86 81 84 98 100 100 91 84 85 83 95 95 98 99 100 100 100 100 100 100 100 100 100 99 92 97 100 99 88
34 18 16 12 12 7 10 19 35 37 32 49 64 76 98 97 97 95 95 100 81 64 85 98 99 100 100 100 100 100 100 100 100 100 100 100 100 100 100 96 98 100 100 100

GFSNW_250_rhum_021.txt.gz
RH
7 3 2 2 3 3 3 3 3 5 8 9 11 22 49 70 82 100 100 100 100 100 100 100 100 100 100 100 100 87 82 65 56 51 53 62 57 45 23 8 6 3 2 4
7 4 2 2 4 3 3 3 4 5 7 11 14 26 48 73 98 100 100 100 100 100 100 100 100 100 100 98 98 75 67 82 84 77 73 56 45 33 24 16 9 3 2 3
8 4 2 3 4 4 3 4 4 5 8 12 13 22 46 72 94 100 100 100 100 100 100 100 100 98 99 92 83 77 94 96 84 71 60 55 76 82 39 15 10 6 3 2
9 4 3 3 4 4 4 3 4 5 8 9 11 23 41 67 83 100 100 100 98 100 100 100 98 89 96 81 90 100 94 79 67 85 86 80 91 93 65 34 18 8 7 5
10 4 3 3 4 4 5 4 4 7 9 12 16 26 40 66 85 100 98 99 100 100 100 98 87 94 73 96 92 93 80 75 100 94 100 100 100 97 85 76 50 27 17 10
11 5 4 4 5 5 6 6 7 9 12 15 18 26 36 61 82 100 100 100 100 100 100 95 82 74 90 83 97 92 64 90 100 100 100 100 100 100 85 93 93 89 70 37
13 6 4 4 6 6 7 8 7 9 11 14 20 22 29 49 69 96 100 100 100 100 98 83 78 76 71 84 99 91 81 100 100 100 100 100 100 100 100 99 83 95 96 94
15 6 4 5 5 8 8 9 10 11 13 14 18 22 24 33 56 76 99 100 100 100 94 84 65 86 64 100 90 78 81 100 98 100 100 100 100 100 100 100 100 100 91 87
16 6 4 5 5 9 9 10 12 10 12 15 18 20 26 36 47 61 84 100 100 94 85 70 75 83 82 100 75 82 99 99 99 100 100 100 99 100 91 100 100 100 100 100
15 7 4 5 6 9 10 11 13 15 15 16 20 24 27 32 49 70 91 93 91 87 71 88 67 91 100 99 92 60 89 75 74 87 99 100 94 100 94 100 100 100 100 100
15 7 5 6 6 10 11 15 14 17 18 17 20 28 33 39 43 47 58 80 84 70 77 71 88 94 98 100 98 62 82 100 99 86 100 100 100 99 100 100 100 97 100 100
17 7 6 6 6 9 12 16 14 19 19 25 30 38 41 47 56 64 72 66 70 78 69 80 96 100 99 100 100 85 84 87 100 79 74 92 100 100 100 88 96 100 100 100
20 8 5 6 6 9 12 15 18 19 21 38 40 40 49 55 62 61 74 80 83 65 63 82 100 99 100 100 99 100 100 93 98 100 97 81 86 99 94 99 97 98 91 100
19 8 5 6 6 9 13 16 17 20 29 39 41 46 52 62 76 84 91 88 64 64 65 96 98 99 100 100 100 100 100 100 100 100 100 90 94 99 100 100 100 100 95 99
18 7 5 6 6 8 11 13 16 21 36 50 53 55 72 83 88 89 82 71 70 81 78 84 92 94 98 99 94 90 94 93 95 99 100 100 100 95 96 100 98 98 95 94
17 6 5 5 6 7 10 14 19 34 54 68 70 72 86 92 76 71 67 62 78 80 90 92 88 82 88 80 69 74 83 87 84 88 78 89 97 99 100 91 80 88 89 85
17 6 5 5 6 7 10 15 28 44 68 85 75 85 87 87 69 68 61 68 68 87 95 90 95 94 78 76 68 87 93 84 67 66 79 94 100 97 81 64 66 70 73 67
17 6 4 5 6 8 11 12 19 43 77 87 89 87 84 76 67 70 81 87 93 81 78 88 94 94 98 86 58 42 46 52 60 68 78 79 81 82 75 58 51 53 53 51
16 6 4 4 5 7 9 12 20 51 92 94 91 88 86 70 60 70 84 90 83 90 96 94 91 90 100 85 65 44 38 40 49 57 64 73 73 74 77 72 64 64 70 71
18 6 5 6 4 6 9 15 15 43 96 100 98 92 87 73 61 59 72 89 94 94 91 81 73 98 100 100 100 100 90 58 61 82 87 83 87 96 100 100 98 98 99 95
20 7 5 5 4 6 11 15 20 43 77 96 100 97 88 69 65 65 72 91 100 100 94 78 85 98 97 100 100 100 100 100 93 96 100 99 99 95 97 98 100 99 97 94
25 10 7 6 4 6 12 17 24 48 66 77 92 98 96 86 72 74 74 86 100 95 90 74 85 95 100 100 99 99 100 100 98 100 100 100 100 98 98 94 90 93 97 100
27 16 8 8 6 9 14 18 25 41 55 61 94 100 100 98 77 72 71 82 100 100 83 79 78 94 100 100 100 100 100 100 100 100 100 100 100 100 100 98 100 100 97 96
28 27 10 8 7 8 21 24 28 37 34 45 82 100 98 93 85 77 72 80 87 100 100 83 80 82 92 95 94 100 100 100 100 100 100 100 100 100 100 100 97 83 75 76
42 37 18 11 10 10 12 27 30 31 26 35 57 86 95 88 89 86 91 91 96 96 100 100 88 76 79 87 94 90 91 90 90 90 91 85 89 95 96 89 84 80 84 88
63 53 43 18 13 11 11 14 25 30 30 32 44 61 91 95 98 96 100 97 100 82 82 97 100 100 93 88 86 90 96 97 98 100 100 100 100 96 87 80 76 96 100 100
74 66 66 40 22 20 14 11 13 18 21 24 33 44 69 89 100 100 100 100 91 71 64 79 99 100 100 100 99 96 91 95 100 100 99 98 90 84 83 85 98 97 96 100